FDX5034 VOBL-VABB

Flight info

Callsign FDX5034
Flight time 1h 8m
Altitude 38000
Route VAGPU7B VAGPU Q8 AGELA MOLGO2A
Aircraft MD11/H-SDE1E2E3FGHIJ2J3J4J5M1RWXY/LB1D1

Departure

Time 2026-05-04 11:55
Airport Kempegowda International Airport Bengaluru (VOBL)

Arrival

Time 2026-05-04 13:03
Airport Chhatrapati Shivaji Maharaj International Airport (VABB)
Time Latitude Longitude Altitude Speed Heading
2026-05-04 11:29 13.20184 77.69750 2974 ft 0 kts 181°
2026-05-04 11:40 13.20186 77.69750 2975 ft 1 kts 186°
2026-05-04 11:41 13.20198 77.69755 2975 ft 2 kts 190°
2026-05-04 11:41 13.20213 77.69755 2975 ft 2 kts 178°
2026-05-04 11:41 13.20222 77.69755 2976 ft 2 kts 179°
2026-05-04 11:41 13.20237 77.69753 2976 ft 2 kts 162°
2026-05-04 11:42 13.20251 77.69747 2977 ft 2 kts 147°
2026-05-04 11:42 13.20262 77.69737 2978 ft 2 kts 133°
2026-05-04 11:42 13.20271 77.69726 2978 ft 2 kts 118°
2026-05-04 11:42 13.20276 77.69711 2979 ft 2 kts 103°
2026-05-04 11:43 13.20278 77.69699 2979 ft 0 kts 90°
2026-05-04 11:43 13.20278 77.69697 2979 ft 0 kts 89°
2026-05-04 11:46 13.20278 77.69707 2979 ft 3 kts 90°
2026-05-04 11:46 13.20277 77.69743 2978 ft 6 kts 90°
2026-05-04 11:46 13.20276 77.69804 2978 ft 10 kts 91°
2026-05-04 11:46 13.20273 77.69894 2979 ft 14 kts 92°
2026-05-04 11:47 13.20269 77.70010 2979 ft 18 kts 92°
2026-05-04 11:47 13.20266 77.70146 2982 ft 20 kts 91°
2026-05-04 11:47 13.20265 77.70306 2982 ft 24 kts 90°
2026-05-04 11:47 13.20262 77.70483 2980 ft 28 kts 91°
2026-05-04 11:48 13.20262 77.70576 2980 ft 27 kts 90°
2026-05-04 11:48 13.20262 77.70776 2976 ft 29 kts 89°
2026-05-04 11:48 13.20261 77.70977 2970 ft 28 kts 90°
2026-05-04 11:48 13.20259 77.71183 2964 ft 28 kts 91°
2026-05-04 11:49 13.20257 77.71362 2961 ft 24 kts 90°
2026-05-04 11:49 13.20258 77.71532 2958 ft 22 kts 89°
2026-05-04 11:49 13.20258 77.71699 2958 ft 22 kts 91°
2026-05-04 11:49 13.20319 77.71788 2954 ft 18 kts
2026-05-04 11:50 13.20465 77.71787 2947 ft 19 kts
2026-05-04 11:50 13.20517 77.71848 2944 ft 13 kts 89°
2026-05-04 11:50 13.20517 77.71948 2944 ft 14 kts 91°
2026-05-04 11:50 13.20515 77.72062 2943 ft 17 kts 90°
2026-05-04 11:51 13.20515 77.72202 2941 ft 21 kts 90°
2026-05-04 11:51 13.20531 77.72274 2939 ft 9 kts 39°
2026-05-04 11:51 13.20607 77.72285 2936 ft 13 kts
2026-05-04 11:51 13.20680 77.72278 2933 ft 7 kts 319°
2026-05-04 11:52 13.20685 77.72266 2933 ft 1 kts 274°
2026-05-04 11:52 13.20685 77.72257 2933 ft 0 kts 270°
2026-05-04 11:52 13.20685 77.72254 2933 ft 0 kts 270°
2026-05-04 11:53 13.20688 77.72104 2936 ft 58 kts 272°
2026-05-04 11:55 13.23011 77.63900 6475 ft 230 kts 308°
2026-05-04 11:55 13.24039 77.62410 6582 ft 277 kts 306°
2026-05-04 11:56 13.25083 77.60762 7724 ft 281 kts 304°
2026-05-04 11:56 13.26146 77.59024 8666 ft 294 kts 303°
2026-05-04 11:56 13.27188 77.57279 9883 ft 293 kts 303°
2026-05-04 11:56 13.28454 77.55599 10465 ft 314 kts 322°
2026-05-04 11:57 13.30448 77.54442 10730 ft 347 kts 340°
2026-05-04 11:57 13.32943 77.53848 10770 ft 379 kts 355°
2026-05-04 11:57 13.35628 77.53986 10721 ft 391 kts 11°
2026-05-04 11:57 13.38197 77.54913 10706 ft 394 kts 27°
2026-05-04 11:58 13.40548 77.56323 10713 ft 394 kts 32°
2026-05-04 11:58 13.42908 77.57738 10737 ft 395 kts 20°
2026-05-04 11:58 13.45596 77.58052 11845 ft 391 kts 354°
2026-05-04 11:58 13.48302 77.57479 12479 ft 406 kts 344°
2026-05-04 11:59 13.51027 77.56549 13377 ft 412 kts 341°
2026-05-04 11:59 13.53708 77.55537 14300 ft 417 kts 340°
2026-05-04 11:59 13.56451 77.54473 15151 ft 425 kts 339°
2026-05-04 11:59 13.59234 77.53378 15956 ft 433 kts 339°
2026-05-04 12:00 13.62084 77.52247 16768 ft 441 kts 338°
2026-05-04 12:00 13.64966 77.51102 17613 ft 447 kts 338°
2026-05-04 12:00 13.67888 77.49937 18424 ft 452 kts 338°
2026-05-04 12:00 13.70813 77.48772 19211 ft 458 kts 338°
2026-05-04 12:01 13.73826 77.47570 19972 ft 463 kts 338°
2026-05-04 12:01 13.76815 77.46375 20716 ft 468 kts 337°
2026-05-04 12:02 13.95668 77.38824 24746 ft 500 kts 337°
2026-05-04 12:03 13.98948 77.37508 25374 ft 505 kts 337°
2026-05-04 12:03 14.02242 77.36188 25999 ft 510 kts 337°
2026-05-04 12:03 14.05545 77.34865 26656 ft 515 kts 337°
2026-05-04 12:03 14.08908 77.33520 27304 ft 520 kts 337°
2026-05-04 12:04 14.12330 77.32150 27909 ft 526 kts 337°
2026-05-04 12:04 14.15699 77.30731 28518 ft 529 kts 332°
2026-05-04 12:04 14.18841 77.28788 29216 ft 528 kts 322°
2026-05-04 12:04 14.21746 77.26492 30256 ft 523 kts 319°
2026-05-04 12:05 14.24547 77.24179 31418 ft 517 kts 319°
2026-05-04 12:05 14.27360 77.21902 32621 ft 511 kts 320°
2026-05-04 12:05 14.30166 77.19696 33788 ft 507 kts 320°
2026-05-04 12:05 14.33009 77.17522 34917 ft 504 kts 321°
2026-05-04 12:06 14.35823 77.15414 35971 ft 501 kts 321°
2026-05-04 12:06 14.38642 77.13327 36972 ft 499 kts 321°
2026-05-04 12:06 14.41503 77.11208 37459 ft 505 kts 321°
2026-05-04 12:06 14.44297 77.09129 37684 ft 498 kts 321°
2026-05-04 12:07 14.47121 77.07020 37819 ft 495 kts 321°
2026-05-04 12:07 14.49731 77.04723 37794 ft 488 kts 313°
2026-05-04 12:07 14.52108 77.02304 37908 ft 488 kts 312°
2026-05-04 12:07 14.54534 76.99799 37769 ft 490 kts 313°
2026-05-04 12:08 14.59368 76.94931 37811 ft 488 kts 314°
2026-05-04 12:08 14.64344 76.90083 37811 ft 490 kts 314°
2026-05-04 12:09 14.69284 76.85259 37804 ft 486 kts 314°
2026-05-04 12:09 14.74193 76.80441 37834 ft 488 kts 314°
2026-05-04 12:10 14.79127 76.75635 37814 ft 487 kts 314°
2026-05-04 12:10 14.84045 76.70830 37834 ft 488 kts 314°
2026-05-04 12:11 14.88979 76.66009 37822 ft 486 kts 314°
2026-05-04 12:11 14.93861 76.61244 37830 ft 486 kts 314°
2026-05-04 12:12 14.98814 76.56412 37834 ft 488 kts 315°
2026-05-04 12:12 15.03751 76.51594 37817 ft 486 kts 315°
2026-05-04 12:14 15.23382 76.32285 37810 ft 486 kts 314°
2026-05-04 12:15 15.28244 76.27490 37812 ft 485 kts 314°
2026-05-04 12:15 15.33152 76.22656 37821 ft 487 kts 315°
2026-05-04 12:16 15.38053 76.17831 37818 ft 487 kts 315°
2026-05-04 12:16 15.42956 76.13004 37813 ft 487 kts 315°
2026-05-04 12:17 15.47870 76.08163 37810 ft 488 kts 315°
2026-05-04 12:17 15.52782 76.03330 37817 ft 486 kts 315°
2026-05-04 12:18 15.57686 75.98504 37818 ft 484 kts 315°
2026-05-04 12:18 15.62582 75.93685 37834 ft 487 kts 315°
2026-05-04 12:19 15.67472 75.88878 37820 ft 486 kts 315°
2026-05-04 12:19 15.72376 75.84017 37814 ft 486 kts 315°
2026-05-04 12:20 15.77240 75.79166 37822 ft 487 kts 315°
2026-05-04 12:20 15.82132 75.74307 37809 ft 485 kts 315°
2026-05-04 12:21 15.87008 75.69462 37816 ft 484 kts 315°
2026-05-04 12:21 15.91876 75.64620 37819 ft 486 kts 315°
2026-05-04 12:22 15.96755 75.59776 37805 ft 485 kts 315°
2026-05-04 12:22 16.01629 75.54935 37827 ft 486 kts 315°
2026-05-04 12:23 16.06517 75.50082 37822 ft 487 kts 315°
2026-05-04 12:23 16.11427 75.45209 37816 ft 486 kts 315°
2026-05-04 12:24 16.16303 75.40366 37813 ft 485 kts 315°
2026-05-04 12:24 16.21169 75.35538 37812 ft 484 kts 315°
2026-05-04 12:25 16.26040 75.30706 37826 ft 483 kts 315°
2026-05-04 12:25 16.30897 75.25871 37822 ft 484 kts 315°
2026-05-04 12:26 16.35742 75.20994 37818 ft 483 kts 315°
2026-05-04 12:26 16.40576 75.16142 37818 ft 483 kts 315°
2026-05-04 12:27 16.45401 75.11307 37808 ft 482 kts 315°
2026-05-04 12:27 16.50215 75.06478 37816 ft 480 kts 315°
2026-05-04 12:28 16.55020 75.01661 37821 ft 478 kts 315°
2026-05-04 12:28 16.59817 74.96857 37871 ft 479 kts 315°
2026-05-04 12:29 16.64595 74.92066 37868 ft 478 kts 315°
2026-05-04 12:29 16.69408 74.87244 37885 ft 480 kts 315°
2026-05-04 12:30 16.74225 74.82423 37878 ft 479 kts 315°
2026-05-04 12:30 16.79015 74.77625 37895 ft 477 kts 315°
2026-05-04 12:31 16.83780 74.72854 37894 ft 475 kts 315°
2026-05-04 12:31 16.88545 74.68085 37910 ft 474 kts 315°
2026-05-04 12:32 16.95634 74.60902 37900 ft 473 kts 315°
2026-05-04 12:33 17.00344 74.56129 37904 ft 473 kts 315°
2026-05-04 12:33 17.05108 74.51310 37909 ft 474 kts 315°
2026-05-04 12:34 17.09822 74.46538 37902 ft 473 kts 315°
2026-05-04 12:34 17.14560 74.41744 37923 ft 473 kts 315°
2026-05-04 12:35 17.19275 74.36974 37833 ft 474 kts 315°
2026-05-04 12:35 17.24033 74.32162 37651 ft 474 kts 315°
2026-05-04 12:36 17.28780 74.27363 37492 ft 475 kts 315°
2026-05-04 12:36 17.33505 74.22587 36879 ft 473 kts 315°
2026-05-04 12:36 17.35856 74.20209 36187 ft 472 kts 315°
2026-05-04 12:37 17.38199 74.17843 35532 ft 472 kts 315°
2026-05-04 12:37 17.40564 74.15453 34635 ft 476 kts 315°
2026-05-04 12:37 17.42969 74.13022 33695 ft 480 kts 315°
2026-05-04 12:37 17.45372 74.10594 32951 ft 480 kts 315°
2026-05-04 12:38 17.47780 74.08162 32051 ft 485 kts 315°
2026-05-04 12:38 17.50194 74.05712 31169 ft 490 kts 315°
2026-05-04 12:38 17.52624 74.03223 30322 ft 493 kts 315°
2026-05-04 12:38 17.55095 74.00687 29396 ft 497 kts 315°
2026-05-04 12:39 17.57569 73.98150 28635 ft 496 kts 315°
2026-05-04 12:39 17.60026 73.95639 28023 ft 493 kts 315°
2026-05-04 12:39 17.62483 73.93131 27401 ft 499 kts 315°
2026-05-04 12:39 17.64983 73.90580 26813 ft 502 kts 315°
2026-05-04 12:40 17.67468 73.88039 26282 ft 507 kts 315°
2026-05-04 12:40 17.69988 73.85460 25733 ft 507 kts 315°
2026-05-04 12:40 17.72522 73.82869 25166 ft 502 kts 315°
2026-05-04 12:40 17.75004 73.80335 24620 ft 492 kts 315°
2026-05-04 12:41 17.77412 73.77878 24139 ft 484 kts 315°
2026-05-04 12:41 17.79829 73.75410 23630 ft 485 kts 315°
2026-05-04 12:41 17.82234 73.72954 23049 ft 484 kts 314°
2026-05-04 12:41 17.84650 73.70486 22512 ft 481 kts 314°
2026-05-04 12:42 17.87025 73.68059 21981 ft 478 kts 314°
2026-05-04 12:42 17.89407 73.65626 21439 ft 475 kts 314°
2026-05-04 12:42 17.91752 73.63232 20913 ft 471 kts 315°
2026-05-04 12:42 17.94104 73.60834 20389 ft 468 kts 315°
2026-05-04 12:43 17.96413 73.58479 19877 ft 465 kts 315°
2026-05-04 12:43 17.98730 73.56117 19349 ft 462 kts 315°
2026-05-04 12:43 18.01047 73.53754 18819 ft 458 kts 315°
2026-05-04 12:43 18.03302 73.51452 18310 ft 454 kts 315°
2026-05-04 12:44 18.05542 73.49166 17831 ft 447 kts 315°
2026-05-04 12:44 18.07765 73.46900 17366 ft 439 kts 315°
2026-05-04 12:44 18.09922 73.44693 16923 ft 437 kts 316°
2026-05-04 12:44 18.12117 73.42458 16514 ft 441 kts 316°
2026-05-04 12:45 18.14390 73.40277 16126 ft 437 kts 321°
2026-05-04 12:45 18.16833 73.38436 15661 ft 423 kts 328°
2026-05-04 12:45 18.19392 73.37045 15175 ft 408 kts 335°
2026-05-04 12:45 18.21957 73.35892 14716 ft 388 kts 337°
2026-05-04 12:46 18.24374 73.34840 14327 ft 365 kts 336°
2026-05-04 12:46 18.26629 73.33842 14001 ft 339 kts 336°
2026-05-04 12:46 18.28720 73.32909 13708 ft 316 kts 335°
2026-05-04 12:46 18.30697 73.32021 13456 ft 298 kts 335°
2026-05-04 12:47 18.32617 73.31153 13247 ft 305 kts 335°
2026-05-04 12:47 18.34608 73.30248 13021 ft 309 kts 335°
2026-05-04 12:47 18.36561 73.29359 12719 ft 305 kts 335°
2026-05-04 12:47 18.38483 73.28479 12479 ft 303 kts 335°
2026-05-04 12:48 18.40476 73.27568 12396 ft 318 kts 336°
2026-05-04 12:48 18.42533 73.26640 12088 ft 315 kts 336°
2026-05-04 12:48 18.44498 73.25764 11783 ft 300 kts 336°
2026-05-04 12:48 18.46393 73.24919 11492 ft 294 kts 336°
2026-05-04 12:49 18.48280 73.24075 11218 ft 294 kts 336°
2026-05-04 12:49 18.50147 73.23235 10968 ft 291 kts 336°
2026-05-04 12:49 18.52008 73.22400 10697 ft 291 kts 336°
2026-05-04 12:49 18.53857 73.21571 10418 ft 288 kts 336°
2026-05-04 12:50 18.55708 73.20743 10144 ft 288 kts 337°
2026-05-04 12:50 18.57554 73.19884 9869 ft 288 kts 329°
2026-05-04 12:50 18.59230 73.18727 9650 ft 285 kts 334°
2026-05-04 12:50 18.61038 73.17965 9174 ft 284 kts 343°
2026-05-04 12:51 18.62937 73.17449 8834 ft 273 kts 348°
2026-05-04 12:51 18.64813 73.17066 8247 ft 278 kts 349°
2026-05-04 12:51 18.66699 73.16743 7887 ft 271 kts 351°
2026-05-04 12:51 18.68553 73.16454 7315 ft 273 kts 351°
2026-05-04 12:52 18.70434 73.16177 6573 ft 270 kts 351°
2026-05-04 12:52 18.72269 73.15923 5866 ft 267 kts 350°
2026-05-04 12:52 18.74102 73.15678 5199 ft 263 kts 351°
2026-05-04 12:52 18.75905 73.15434 4559 ft 260 kts 351°
2026-05-04 12:53 18.77734 73.15179 4104 ft 273 kts 350°
2026-05-04 12:53 18.79597 73.14911 3949 ft 259 kts 350°
2026-05-04 12:53 18.81339 73.14658 3946 ft 249 kts 350°
2026-05-04 12:53 18.83052 73.14409 3926 ft 243 kts 350°
2026-05-04 12:54 18.84717 73.14166 3451 ft 243 kts 350°
2026-05-04 12:54 18.86360 73.13922 3383 ft 234 kts 350°
2026-05-04 12:54 18.87959 73.13684 3243 ft 228 kts 350°
2026-05-04 12:54 18.89544 73.13446 3344 ft 224 kts 350°
2026-05-04 12:55 18.91037 73.13221 3285 ft 211 kts 349°
2026-05-04 12:55 18.92469 73.13013 3245 ft 200 kts 349°
2026-05-04 12:55 18.93815 73.12824 3201 ft 191 kts 350°
2026-05-04 12:55 18.95096 73.12650 3217 ft 178 kts 350°
2026-05-04 12:56 18.96316 73.12491 3246 ft 173 kts 350°
2026-05-04 12:56 18.97519 73.12337 3273 ft 173 kts 350°
2026-05-04 12:56 18.98719 73.12186 3053 ft 176 kts 350°
2026-05-04 12:56 18.99917 73.12035 2868 ft 168 kts 350°
2026-05-04 12:57 19.01110 73.11882 2932 ft 175 kts 350°
2026-05-04 12:57 19.02310 73.11723 2914 ft 173 kts 350°
2026-05-04 12:57 19.03509 73.11561 2908 ft 173 kts 350°
2026-05-04 12:57 19.04698 73.11346 2891 ft 171 kts 337°
2026-05-04 12:58 19.05660 73.10684 2936 ft 168 kts 313°
2026-05-04 12:58 19.06416 73.09728 2937 ft 167 kts 303°
2026-05-04 12:58 19.07044 73.08697 2909 ft 166 kts 299°
2026-05-04 12:58 19.07620 73.07629 2916 ft 169 kts 297°
2026-05-04 12:59 19.08176 73.06538 2913 ft 169 kts 296°
2026-05-04 12:59 19.08693 73.05437 2887 ft 165 kts 290°
2026-05-04 12:59 19.08987 73.04269 2825 ft 166 kts 278°
2026-05-04 12:59 19.09082 73.03048 2678 ft 165 kts 271°
2026-05-04 13:00 19.09087 73.01845 2496 ft 163 kts 269°
2026-05-04 13:00 19.09067 73.00650 2300 ft 163 kts 269°
2026-05-04 13:00 19.09047 72.99445 2095 ft 164 kts 269°
2026-05-04 13:00 19.09025 72.98243 1888 ft 162 kts 267°
2026-05-04 13:01 19.09004 72.97073 1687 ft 155 kts 267°
2026-05-04 13:01 19.08987 72.95943 1502 ft 154 kts 268°
2026-05-04 13:01 19.08976 72.94809 1311 ft 154 kts 268°
2026-05-04 13:01 19.08961 72.93675 1113 ft 153 kts 266°
2026-05-04 13:02 19.08937 72.92548 926 ft 151 kts 267°
2026-05-04 13:02 19.08932 72.91421 770 ft 156 kts 267°
2026-05-04 13:02 19.08918 72.90244 592 ft 159 kts 268°
2026-05-04 13:02 19.08902 72.89106 342 ft 153 kts 267°
2026-05-04 13:03 19.08884 72.87974 130 ft 155 kts 268°
2026-05-04 13:03 19.08870 72.86865 35 ft 139 kts 267°
2026-05-04 13:03 19.08861 72.86300 37 ft 32 kts 268°
2026-05-04 13:03 19.08862 72.86040 33 ft 33 kts 274°
2026-05-04 13:04 19.08937 72.85860 32 ft 20 kts 302°
2026-05-04 13:04 19.09017 72.85844 33 ft 11 kts 60°
2026-05-04 13:04 19.09026 72.85922 34 ft 10 kts 87°
2026-05-04 13:04 19.09031 72.86011 35 ft 14 kts 87°
2026-05-04 13:05 19.09036 72.86145 36 ft 22 kts 88°
2026-05-04 13:05 19.09042 72.86303 36 ft 19 kts 71°
2026-05-04 13:05 19.09071 72.86352 36 ft 0 kts 47°
2026-05-04 13:05 19.09083 72.86367 36 ft 6 kts 47°
2026-05-04 13:06 19.09130 72.86420 36 ft 14 kts 48°
2026-05-04 13:06 19.09218 72.86527 37 ft 21 kts 49°
2026-05-04 13:06 19.09318 72.86649 38 ft 23 kts 49°
2026-05-04 13:06 19.09431 72.86784 40 ft 17 kts 56°
2026-05-04 13:07 19.09392 72.86863 39 ft 14 kts 144°
2026-05-04 13:07 19.09344 72.86892 38 ft 4 kts 199°
2026-05-04 13:07 19.09304 72.86862 37 ft 5 kts 225°
2026-05-04 13:07 19.09283 72.86841 37 ft 0 kts 223°